This is the latest recevied weather packets stored in our database for station/object KY4LEX. If no packets are shown the sender has not sent any weather packets the latest 10 day(s).
| Time | Temp. | Humidity | Pressure | Rain* | Wind** | Luminosity | Snow |
|---|---|---|---|---|---|---|---|
| 1777720911 | 3.89° C | 98% | 1022.6 hPa | 0 mm | - | 29 W/m² | - |
| 1777720608 | 3.33° C | 98% | 1022.6 hPa | 0 mm | - | 23 W/m² | - |
| 1777720305 | 3.33° C | 98% | 1022.4 hPa | 0 mm | - | 20 W/m² | - |
| 1777720003 | 2.78° C | 98% | 1022.3 hPa | 0 mm | - | 17 W/m² | - |
| 1777719700 | 2.78° C | 98% | 1022.5 hPa | 0 mm | - | 12 W/m² | - |
| 1777719397 | 2.78° C | 98% | 1022.3 hPa | 0 mm | - | 7 W/m² | - |
| 1777719094 | 2.78° C | 98% | 1022.3 hPa | 0 mm | - | 5 W/m² | - |
| 1777718791 | 2.78° C | 98% | 1022.4 hPa | 0 mm | - | 3 W/m² | - |
| 1777718489 | 2.78° C | 98% | 1022.2 hPa | 0 mm | - | 2 W/m² | - |
| 1777718187 | 2.78° C | 98% | 1022.1 hPa | 0 mm | - | 1 W/m² | - |
| 1777717885 | 2.78° C | 98% | 1022.3 hPa | 0 mm | - | 0 W/m² | - |
| 1777717581 | 2.78° C | 98% | 1022 hPa | 0 mm | - | 0 W/m² | - |
| 1777717278 | 2.78° C | 97% | 1022.1 hPa | 0 mm | - | 0 W/m² | - |
| 1777716976 | 2.78° C | 97% | 1022.3 hPa | 0 mm | - | 0 W/m² | - |
| 1777716674 | 2.78° C | 97% | 1022.3 hPa | 0 mm | - | 0 W/m² | - |
| 1777716372 | 2.78° C | 97% | 1021.9 hPa | 0 mm | - | 0 W/m² | - |
| 1777716070 | 2.78° C | 97% | 1022.3 hPa | 0 mm | - | 0 W/m² | - |
| 1777715768 | 2.78° C | 97% | 1022.1 hPa | 0 mm | - | 0 W/m² | - |
| 1777715465 | 2.78° C | 97% | 1022 hPa | 0 mm | - | 0 W/m² | - |
| 1777715161 | 2.78° C | 97% | 1022.2 hPa | 0 mm | - | 0 W/m² | - |
| 1777714860 | 3.33° C | 97% | 1022.2 hPa | 0 mm | - | 0 W/m² | - |
| 1777714558 | 3.33° C | 97% | 1022.1 hPa | 0 mm | - | 0 W/m² | - |
| 1777714256 | 3.33° C | 97% | 1022.1 hPa | 0 mm | - | 0 W/m² | - |
| 1777713953 | 3.33° C | 97% | 1022.2 hPa | 0 mm | - | 0 W/m² | - |
| 1777713650 | 3.33° C | 97% | 1022.1 hPa | 0 mm | - | 0 W/m² | - |
* Rain latest hour (hover to see other rain measurements)
** Current wind speed in m/s (hover to see current wind gust speed)